User: anonymous   Login
Location: ??????????
(54.4061°N, 22.6114°E)
Time: 23:20:20
(UTC+00:00)
Language:

STARLINK-27 - Orbit

View from above orbital plane
View from above orbital plane
View from above satellite
View from above satellite

Ground track
Ground track

The orbit data is extracted from the following two-line orbital elements,

1 44241U 19029G   19340.91668981  .00289731  00000-0  16000-1 0  9999
2 44241  53.0066   8.5361 0001386 119.8265 351.2396 15.12073506 29819
Epoch (UTC): 06 December 2019 22:00:02
Eccentricity: 0.0001386
inclination: 53.0066°
perigee height: 529 km
apogee height: 531 km
right ascension of ascending node: 8.5361°
argument of perigee: 119.8265°
revolutions per day: 15.12073506
mean anomaly at epoch: 351.2396°
orbit number at epoch: 2981

The dashed part of the orbit path shows where the satellite is in the earth's shadow,  

DLR